TimeMDT,TemperatureF,Dew PointF,Humidity,Sea Level PressureIn,VisibilityMPH,Wind Direction,Wind SpeedMPH,Gust SpeedMPH,PrecipitationIn,Events,Conditions,WindDirDegrees,DateUTC
12:54 AM,73.9,46.0,37,29.67,10.0,SSW,35.7,47.2,N/A,,Clear,200,2013-06-21 06:54:00
1:54 AM,72.0,46.9,41,29.66,10.0,SSW,42.6,58.7,N/A,,Clear,200,2013-06-21 07:54:00
2:54 AM,70.0,46.9,44,29.68,10.0,SSW,33.4,42.6,N/A,,Clear,200,2013-06-21 08:54:00
3:54 AM,68.0,45.0,43,29.71,10.0,SW,17.3,-,N/A,,Clear,230,2013-06-21 09:54:00
4:54 AM,66.0,46.0,48,29.72,10.0,SW,17.3,-,N/A,,Clear,230,2013-06-21 10:54:00
5:54 AM,64.9,46.0,50,29.71,10.0,WSW,20.7,-,N/A,,Clear,250,2013-06-21 11:54:00
6:54 AM,66.9,46.0,47,29.73,10.0,WSW,17.3,-,N/A,,Clear,250,2013-06-21 12:54:00
7:54 AM,73.0,41.0,31,29.75,10.0,WSW,10.4,-,N/A,,Clear,250,2013-06-21 13:54:00
8:54 AM,78.1,34.0,20,29.75,10.0,West,8.1,-,N/A,,Clear,260,2013-06-21 14:54:00
9:54 AM,87.1,15.1,7,29.73,10.0,West,17.3,21.9,N/A,,Clear,260,2013-06-21 15:54:00
10:54 AM,90.0,8.1,5,29.70,10.0,WSW,18.4,21.9,N/A,,Clear,250,2013-06-21 16:54:00
11:54 AM,91.9,3.9,4,29.68,10.0,WSW,19.6,26.5,N/A,,Clear,250,2013-06-21 17:54:00
12:54 PM,93.9,3.9,4,29.65,10.0,WSW,13.8,25.3,N/A,,Clear,250,2013-06-21 18:54:00
1:54 PM,93.9,5.0,4,29.64,10.0,SW,17.3,25.3,N/A,,Clear,220,2013-06-21 19:54:00
2:54 PM,93.0,3.9,4,29.62,10.0,Variable,5.8,26.5,N/A,,Clear,0,2013-06-21 20:54:00
3:54 PM,95.0,7.0,4,29.60,10.0,West,10.4,21.9,N/A,,Clear,280,2013-06-21 21:54:00
4:54 PM,95.0,5.0,4,29.59,10.0,WSW,15.0,20.7,N/A,,Clear,250,2013-06-21 22:54:00
5:54 PM,91.0,9.0,5,29.60,10.0,WSW,10.4,-,N/A,,Clear,250,2013-06-21 23:54:00
6:54 PM,89.1,8.1,5,29.60,10.0,WSW,12.7,-,N/A,,Clear,250,2013-06-22 00:54:00
7:54 PM,84.9,5.0,5,29.61,10.0,WSW,12.7,-,N/A,,Clear,250,2013-06-22 01:54:00
8:54 PM,80.1,5.0,6,29.62,10.0,WSW,11.5,-,N/A,,Clear,240,2013-06-22 02:54:00
9:54 PM,77.0,7.0,7,29.64,10.0,WSW,13.8,-,N/A,,Clear,250,2013-06-22 03:54:00
10:54 PM,73.0,8.1,8,29.66,10.0,WSW,12.7,-,N/A,,Clear,250,2013-06-22 04:54:00
11:54 PM,73.0,9.0,8,29.65,10.0,WSW,11.5,-,N/A,,Clear,240,2013-06-22 05:54:00